FW8535 Weather Reports


time (UTC)temp
C
wind
direction
speed
KPH
gust
KPH
rain 1hr
cm
rain 24hr
cm
rain mn
cm
humidity
%
barometer
mb
20260506215507 13 272 4.8 17.7 0.00 0.00 0.00 22 1014.0
20260506215007 13 303 11.3 20.9 0.00 0.00 0.00 21 1014.2
20260506214507 13 313 11.3 20.9 0.00 0.00 0.00 23 1014.3
20260506214106 13 271 12.9 22.5 0.00 0.00 0.00 23 1014.4
20260506213510 13 257 12.9 22.5 0.00 0.00 0.00 22 1014.6
20260506213006 13 242 8.0 17.7 0.00 0.00 0.00 21 1014.7
20260506212506 13 294 9.7 24.1 0.00 0.00 0.00 22 1014.8
20260506212009 13 265 11.3 24.1 0.00 0.00 0.00 22 1014.8
20260506211505 13 234 4.8 19.3 0.00 0.00 0.00 22 1014.8
20260506211005 13 290 8.0 19.3 0.00 0.00 0.00 22 1015.0
20260506210508 13 296 8.0 22.5 0.00 0.00 0.00 22 1015.0
20260506210007 13 279 11.3 22.5 0.00 0.00 0.00 23 1015.2
20260506205502 13 5 8.0 17.7 0.00 0.00 0.00 23 1015.1
20260506205002 13 220 6.4 27.4 0.00 0.00 0.00 21 1015.2
20260506204501 13 237 14.5 27.4 0.00 0.00 0.00 23 1015.4
20260506204102 12 255 3.2 20.9 0.00 0.00 0.00 22 1015.4
20260506203506 12 255 3.2 20.9 0.00 0.00 0.00 22 1015.3
20260506203008 12 311 12.9 20.9 0.00 0.00 0.00 23 1015.5
20260506202504 12 257 4.8 24.1 0.00 0.00 0.00 24 1015.5
20260506202004 12 305 8.0 24.1 0.00 0.00 0.00 23 1015.8
20260506201603 12 261 6.4 19.3 0.00 0.00 0.00 23 1015.7
20260506201001 12 278 3.2 17.7 0.00 0.00 0.00 24 1015.8
20260506200501 12 320 8.0 24.1 0.00 0.00 0.00 24 1016.0
20260506200001 12 266 9.7 24.1 0.00 0.00 0.00 24 1016.1
20260506195502 12 355 6.4 20.9 0.00 0.00 0.00 25 1016.2
20260506195059 12 281 9.7 20.9 0.00 0.00 0.00 25 1016.2
20260506194601 12 319 4.8 17.7 0.00 0.00 0.00 25 1016.2
20260506194057 12 44 8.0 17.7 0.00 0.00 0.00 24 1016.4
20260506193105 11 260 12.9 20.9 0.00 0.00 0.00 25 1016.5
20260506192555 12 274 9.7 14.5 0.00 0.00 0.00 25 1016.7
20260506192054 11 225 4.8 14.5 0.00 0.00 0.00 25 1016.9
20260506191555 11 309 6.4 12.9 0.00 0.00 0.00 27 1016.9
20260506191053 10 194 1.6 16.1 0.00 0.00 0.00 25 1017.1
20260506190553 11 274 11.3 22.5 0.00 0.00 0.00 25 1017.3
20260506190054 11 279 16.1 25.7 0.00 0.00 0.00 25 1017.3
20260506185551 11 285 12.9 32.2 0.00 0.00 0.00 25 1017.4
20260506185050 11 244 9.7 29.0 0.00 0.00 0.00 25 1017.4
20260506184551 11 276 9.7 29.0 0.00 0.00 0.00 25 1017.7
20260506184049 11 289 11.3 24.1 0.00 0.00 0.00 25 1017.8
20260506183047 10 272 9.7 17.7 0.00 0.00 0.00 24 1018.1
20260506182546 10 247 4.8 14.5 0.00 0.00 0.00 24 1018.1
20260506182047 10 304 4.8 25.7 0.00 0.00 0.00 24 1018.2
20260506181553 10 234 16.1 25.7 0.00 0.00 0.00 24 1018.2
20260506181045 11 232 11.3 17.7 0.00 0.00 0.00 24 1018.4
20260506180545 10 291 8.0 20.9 0.00 0.00 0.00 25 1018.4
20260506180042 10 331 4.8 20.9 0.00 0.00 0.00 25 1018.6
20260506175541 10 323 9.7 20.9 0.00 0.00 0.00 24 1018.6
20260506175044 10 288 12.9 19.3 0.00 0.00 0.00 25 1018.7
20260506174540 10 319 4.8 19.3 0.00 0.00 0.00 25 1018.8
20260506174138 10 312 6.4 19.3 0.00 0.00 0.00 25 1018.8
20260506173041 9 283 6.4 19.3 0.00 0.00 0.00 26 1019.0
20260506172535 9 297 4.8 17.7 0.00 0.00 0.00 25 1019.0
20260506172035 10 270 11.3 20.9 0.00 0.00 0.00 25 1019.2
20260506171536 9 235 12.9 20.9 0.00 0.00 0.00 26 1019.2
20260506171035 9 21 4.8 17.7 0.00 0.00 0.00 25 1019.3
20260506170534 10 304 9.7 20.9 0.00 0.00 0.00 25 1019.5
20260506170038 9 271 9.7 19.3 0.00 0.00 0.00 26 1019.5
20260506165533 9 319 8.0 16.1 0.00 0.00 0.00 27 1019.3
20260506165032 9 348 9.7 17.7 0.00 0.00 0.00 25 1019.5
20260506164545 8 5 4.8 17.7 0.00 0.00 0.00 26 1019.6
20260506164031 9 290 8.0 17.7 0.00 0.00 0.00 25 1019.7
20260506163030 9 321 4.8 16.1 0.00 0.00 0.00 26 1019.8
20260506162528 8 302 8.0 16.1 0.00 0.00 0.00 25 1020.0
20260506162027 8 323 8.0 14.5 0.00 0.00 0.00 25 1020.0
20260506161528 8 346 4.8 19.3 0.00 0.00 0.00 26 1020.1
20260506161026 8 355 6.4 19.3 0.00 0.00 0.00 27 1020.1
20260506160525 8 283 6.4 19.3 0.00 0.00 0.00 27 1020.0
20260506160024 7 246 6.4 19.3 0.00 0.00 0.00 28 1020.2
20260506155522 7 311 4.8 12.9 0.00 0.00 0.00 29 1020.3
20260506155021 7 276 4.8 11.3 0.00 0.00 0.00 34 1020.3
20260506154520 7 241 3.2 11.3 0.00 0.00 0.00 35 1020.4
20260506154019 7 108 3.2 12.9 0.00 0.00 0.00 34 1020.5
20260506153017 6 130 3.2 14.5 0.00 0.00 0.00 36 1020.5
20260506152516 6 136 6.4 14.5 0.00 0.00 0.00 39 1020.5
20260506152014 6 134 3.2 14.5 0.00 0.00 0.00 39 1020.6
20260506151515 5 132 6.4 14.5 0.00 0.00 0.00 41 1020.8
20260506151012 5 127 8.0 12.9 0.00 0.00 0.00 43 1020.8
20260506150511 5 192 3.2 11.3 0.00 0.00 0.00 44 1020.9
20260506150009 4 133 4.8 12.9 0.00 0.00 0.00 45 1020.8
20260506145508 3 135 6.4 12.9 0.00 0.00 0.00 45 1021.0
20260506145008 3 146 6.4 11.3 0.00 0.00 0.00 45 1021.0
20260506144511 3 184 3.2 8.0 0.00 0.00 0.00 48 1021.0
20260506144006 2 163 1.6 9.7 0.00 0.00 0.00 47 1021.1
20260506143011 2 166 4.8 9.7 0.00 0.00 0.00 48 1021.2
20260506142513 2 167 3.2 9.7 0.00 0.00 0.00 49 1021.2
20260506142007 1 171 3.2 8.0 0.00 0.00 0.00 49 1021.3
20260506141521 1 173 6.4 9.7 0.00 0.00 0.00 49 1021.3
20260506141006 1 196 4.8 9.7 0.00 0.00 0.00 50 1021.2
20260506140505 1 219 4.8 8.0 0.00 0.00 0.00 51 1021.3
20260506140003 0 227 3.2 8.0 0.00 0.00 0.00 51 1021.3
20260506135503 0 229 3.2 6.4 0.00 0.00 0.00 51 1021.4
20260506135100 0 230 3.2 6.4 0.00 0.00 0.00 51 1021.3
20260506134559 0 236 3.2 8.0 0.00 0.00 0.00 52 1021.4
20260506134101 0 234 4.8 8.0 0.00 0.00 0.00 52 1021.3
20260506133107 -1 235 4.8 8.0 0.00 0.00 0.00 54 1021.3
20260506132552 -1 235 3.2 6.4 0.00 0.00 0.00 55 1021.3
20260506132052 -1 235 3.2 8.0 0.00 0.00 0.00 55 1021.4
20260506131606 -1 236 4.8 8.0 0.00 0.00 0.00 55 1021.3
20260506131051 -2 236 3.2 8.0 0.00 0.00 0.00 55 1021.2
20260506130551 -2 236 3.2 6.4 0.00 0.00 0.00 55 1021.3
20260506130051 -2 236 4.8 6.4 0.00 0.00 0.00 56 1021.2
20260506125550 -2 237 3.2 6.4 0.00 0.00 0.00 57 1021.0
20260506125050 -2 237 3.2 4.8 0.00 0.00 0.00 57 1021.3
20260506124551 -3 237 0.0 4.8 0.00 0.00 0.00 58 1021.2
20260506124050 -3 237 3.2 4.8 0.00 0.00 0.00 58 1021.2
20260506123056 -3 237 0.0 3.2 0.00 0.00 0.00 60 1021.0
20260506122554 -4 237 0.0 3.2 0.00 0.00 0.00 60 1020.9
20260506122052 -4 238 0.0 0.0 0.00 0.00 0.00 60 1020.9
20260506121556 -4 238 0.0 1.6 0.00 0.00 0.00 59 1020.9
20260506121052 -4 238 0.0 3.2 0.00 0.00 0.00 58 1020.9
20260506120550 -3 238 0.0 6.4 0.00 0.00 0.00 57 1020.8
20260506120100 -3 238 0.0 6.4 0.00 0.00 0.00 55 1020.8
20260506115549 -2 242 1.6 11.3 0.00 0.00 0.00 53 1020.6
20260506115048 -2 241 3.2 11.3 0.00 0.00 0.00 53 1020.6
20260506114548 -2 320 1.6 8.0 0.00 0.00 0.00 53 1020.5
20260506114147 -2 325 3.2 8.0 0.00 0.00 0.00 54 1020.4
20260506113043 -3 190 0.0 3.2 0.00 0.00 0.00 56 1020.4
20260506112545 -3 190 0.0 4.8 0.00 0.00 0.00 56 1020.4
20260506112041 -3 190 0.0 3.2 0.00 0.00 0.00 57 1020.4
20260506111546 -3 190 0.0 3.2 0.00 0.00 0.00 56 1020.5
20260506111040 -3 190 1.6 8.0 0.00 0.00 0.00 56 1020.3
20260506110541 -3 190 1.6 9.7 0.00 0.00 0.00 56 1020.3
20260506110043 -3 190 4.8 6.4 0.00 0.00 0.00 56 1020.3
20260506105539 -3 190 1.6 6.4 0.00 0.00 0.00 56 1020.3
20260506105042 -3 190 3.2 6.4 0.00 0.00 0.00 57 1020.2
20260506104548 -3 190 1.6 9.7 0.00 0.00 0.00 55 1020.2
20260506104036 -3 190 4.8 9.7 0.00 0.00 0.00 55 1020.1
20260506103044 -2 247 0.0 4.8 0.00 0.00 0.00 55 1020.2
20260506102536 -3 271 0.0 3.2 0.00 0.00 0.00 55 1020.2
20260506102035 -2 271 0.0 3.2 0.00 0.00 0.00 55 1020.3
20260506101535 -2 271 1.6 4.8 0.00 0.00 0.00 54 1020.3
20260506101034 -3 280 0.0 4.8 0.00 0.00 0.00 54 1020.3
20260506100534 -3 280 0.0 3.2 0.00 0.00 0.00 55 1020.3
20260506100034 -3 280 0.0 3.2 0.00 0.00 0.00 55 1020.3
20260506095534 -3 280 0.0 3.2 0.00 0.00 0.00 54 1020.4
20260506095035 -3 280 0.0 4.8 0.00 0.00 0.00 54 1020.3
20260506094533 -3 280 0.0 4.8 0.00 0.00 0.00 55 1020.2
20260506094032 -3 278 0.0 3.2 0.00 0.00 0.00 55 1020.3
20260506093036 -3 279 0.0 3.2 0.00 0.00 0.00 55 1020.1
20260506092536 -3 279 0.0 4.8 0.00 0.00 0.00 55 1020.1
20260506092036 -3 279 0.0 4.8 0.00 0.00 0.00 55 1020.1
20260506091537 -3 279 0.0 4.8 0.00 0.00 0.00 55 1020.3
20260506091034 -3 279 0.0 4.8 0.00 0.00 0.00 55 1020.2
20260506090533 -3 279 1.6 4.8 0.00 0.00 0.00 55 1020.1
20260506090033 -3 279 0.0 4.8 0.00 0.00 0.00 55 1020.1
20260506090003 -3 279 0.0 4.8 0.00 0.00 0.00 55 1020.2
20260506085532 -3 279 0.0 4.8 0.00 0.00 0.00 55 1020.1
20260506085031 -2 279 0.0 6.4 0.00 0.00 0.00 55 1020.1
20260506084607 -2 279 1.6 6.4 0.00 0.00 0.00 55 1020.0
20260506084030 -2 278 1.6 4.8 0.00 0.00 0.00 54 1020.0
20260506083026 -2 278 1.6 4.8 0.00 0.00 0.00 54 1020.1
20260506082524 -2 278 0.0 3.2 0.00 0.00 0.00 53 1020.1
20260506082024 -2 278 0.0 3.2 0.00 0.00 0.00 54 1020.1
20260506081534 -2 278 0.0 3.2 0.00 0.00 0.00 53 1020.1
20260506081022 -2 278 0.0 3.2 0.00 0.00 0.00 53 1020.1
20260506080522 -2 278 0.0 3.2 0.00 0.00 0.00 53 1020.1
20260506073019 -1 279 0.0 4.8 0.00 0.00 0.00 54 1020.1
20260506072517 -1 279 0.0 1.6 0.00 0.00 0.00 54 1020.0
20260506072017 -1 279 0.0 3.2 0.00 0.00 0.00 53 1020.0
20260506071517 -1 279 0.0 3.2 0.00 0.00 0.00 53 1020.1
20260506071015 -1 279 0.0 4.8 0.00 0.00 0.00 53 1020.1
20260506070515 -1 279 0.0 4.8 0.00 0.00 0.00 53 1020.1
20260506062510 -1 272 0.0 3.2 0.00 0.00 0.00 56 1019.8
20260506062010 -1 272 0.0 3.2 0.00 0.00 0.00 56 1019.8
20260506061510 -1 272 0.0 3.2 0.00 0.00 0.00 56 1020.0
20260506061009 -1 272 0.0 3.2 0.00 0.00 0.00 56 1019.8
20260506060510 -1 272 0.0 4.8 0.00 0.00 0.00 56 1019.9
20260506051006 -1 280 1.6 6.4 0.00 0.00 0.00 56 1019.6
20260506050505 -1 279 3.2 6.4 0.00 0.00 0.00 55 1019.7
20260506045005 0 277 3.2 6.4 0.00 0.00 0.00 54 1019.5
20260506044504 0 271 3.2 6.4 0.00 0.00 0.00 55 1019.6
20260506044006 0 276 1.6 6.4 0.00 0.00 0.00 55 1019.5
20260506043003 0 298 1.6 3.2 0.00 0.00 0.00 55 1019.5
20260506042504 0 307 1.6 3.2 0.00 0.00 0.00 55 1019.6
20260506042003 0 307 1.6 3.2 0.00 0.00 0.00 55 1019.5
20260506041503 0 307 1.6 4.8 0.00 0.00 0.00 55 1019.7
20260506041002 0 307 1.6 4.8 0.00 0.00 0.00 55 1019.4
20260506040502 0 307 1.6 3.2 0.00 0.00 0.00 55 1019.6
20260506040001 0 307 1.6 4.8 0.00 0.00 0.00 54 1019.6
20260506035501 0 307 1.6 4.8 0.00 0.00 0.00 53 1019.6
20260506035100 0 307 1.6 3.2 0.00 0.00 0.00 53 1019.6
20260506034559 0 307 1.6 4.8 0.00 0.00 0.00 53 1019.6
20260506034059 0 307 3.2 4.8 0.00 0.00 0.00 52 1019.5
20260506033101 0 307 3.2 4.8 0.00 0.00 0.00 51 1019.6
20260506032556 0 307 1.6 4.8 0.00 0.00 0.00 51 1019.6
20260506032055 0 307 1.6 4.8 0.00 0.00 0.00 50 1019.4
20260506031556 0 307 1.6 4.8 0.00 0.00 0.00 49 1019.4
20260506031054 1 307 3.2 4.8 0.00 0.00 0.00 48 1019.3
20260506030552 1 308 0.0 4.8 0.00 0.00 0.00 47 1019.3
20260506030051 1 309 0.0 0.0 0.00 0.00 0.00 47 1019.3
20260506025551 2 309 0.0 0.0 0.00 0.00 0.00 47 1019.1
20260506025053 2 309 0.0 1.6 0.00 0.00 0.00 46 1019.2
20260506024549 2 309 0.0 4.8 0.00 0.00 0.00 46 1019.2
20260506024151 2 309 0.0 4.8 0.00 0.00 0.00 45 1019.1
20260506023104 3 309 0.0 0.0 0.00 0.00 0.00 44 1019.1
20260506022550 3 309 0.0 6.4 0.00 0.00 0.00 44 1019.0
20260506022050 3 309 0.0 6.4 0.00 0.00 0.00 43 1018.9
20260506021609 3 340 0.0 4.8 0.00 0.00 0.00 43 1019.0
20260506021051 3 340 0.0 3.2 0.00 0.00 0.00 42 1018.9
20260506020549 4 340 0.0 3.2 0.00 0.00 0.00 42 1019.0
20260506020049 4 340 0.0 3.2 0.00 0.00 0.00 41 1018.8
20260506015549 5 351 0.0 1.6 0.00 0.00 0.00 40 1018.8
20260506015051 5 351 0.0 6.4 0.00 0.00 0.00 40 1018.7
20260506014547 5 355 0.0 6.4 0.00 0.00 0.00 39 1018.7
20260506014050 6 349 3.2 8.0 0.00 0.00 0.00 39 1018.7
20260506013057 6 337 3.2 12.9 0.00 0.00 0.00 38 1018.6
20260506012546 6 319 1.6 12.9 0.00 0.00 0.00 38 1018.6
20260506012047 6 355 4.8 12.9 0.00 0.00 0.00 38 1018.6
20260506011559 6 355 6.4 14.5 0.00 0.00 0.00 38 1018.6
20260506011044 6 9 6.4 17.7 0.00 0.00 0.00 37 1018.5
20260506010545 7 5 6.4 17.7 0.00 0.00 0.00 36 1018.4
20260506010048 7 348 4.8 12.9 0.00 0.00 0.00 36 1018.3
20260506005548 7 26 4.8 12.9 0.00 0.00 0.00 36 1018.3
20260506005044 7 24 3.2 9.7 0.00 0.00 0.00 37 1018.3
20260506004544 7 290 3.2 16.1 0.00 0.00 0.00 37 1018.4
20260506004043 7 304 8.0 16.1 0.00 0.00 0.00 37 1018.3
20260506003043 7 360 6.4 14.5 0.00 0.00 0.00 36 1018.2
20260506002542 7 360 8.0 17.7 0.00 0.00 0.00 36 1018.2
20260506002042 7 12 6.4 17.7 0.00 0.00 0.00 36 1018.1
20260506001547 7 312 4.8 16.1 0.00 0.00 0.00 36 1018.2
20260506001042 7 307 4.8 16.1 0.00 0.00 0.00 35 1018.3
20260506000544 7 13 4.8 17.7 0.00 0.00 0.00 35 1018.2
20260506000047 7 300 8.0 19.3 0.00 0.00 0.00 35 1018.1
20260505235544 7 317 4.8 19.3 0.00 0.00 0.00 35 1018.1
20260505235042 7 302 4.8 12.9 0.00 0.00 0.00 36 1018.1
20260505234541 7 298 1.6 14.5 0.00 0.00 0.00 35 1018.1
20260505234041 7 355 6.4 17.7 0.00 0.00 0.00 35 1018.0
20260505233145 7 296 6.4 16.1 0.00 0.00 0.00 35 1017.9
20260505232545 7 302 3.2 16.1 0.00 0.00 0.00 35 1017.8
20260505232048 7 360 3.2 14.5 0.00 0.00 0.00 36 1018.0
20260505231603 7 292 6.4 14.5 0.00 0.00 0.00 35 1017.7
20260505231044 7 360 4.8 14.5 0.00 0.00 0.00 36 1018.0
20260505230544 7 30 4.8 24.1 0.00 0.00 0.00 36 1017.8
20260505230045 7 296 4.8 30.6 0.00 0.00 0.00 35 1017.9
20260505225545 7 324 3.2 16.1 0.00 0.00 0.00 36 1017.8
20260505225045 7 34 8.0 16.1 0.00 0.00 0.00 35 1017.8
20260505224545 7 26 4.8 16.1 0.00 0.00 0.00 35 1017.9
20260505224044 7 334 9.7 20.9 0.00 0.00 0.00 35 1017.8
20260505223037 7 317 6.4 17.7 0.00 0.00 0.00 36 1017.8
20260505222537 7 303 8.0 17.7 0.00 0.00 0.00 36 1017.9
20260505222037 7 323 6.4 20.9 0.00 0.00 0.00 36 1017.8
20260505221537 7 282 8.0 20.9 0.00 0.00 0.00 35 1017.9
20260505221036 7 292 4.8 22.5 0.00 0.00 0.00 35 1017.9
20260505220536 7 12 4.8 22.5 0.00 0.00 0.00 37 1017.8
20260505220036 7 300 6.4 19.3 0.00 0.00 0.00 36 1017.8